Location: Unspecified
(0.0000°N, 0.0000°E)
Time: 04:28:43
(UTC+00:00)

TerraSAR-X - Visible Passes

Search period start: 16 April 2024 00:00
Search period end: 26 April 2024 00:00
Orbit: 507 x 510 km, 97.4° (Epoch: 15 April)

Date Brightness Start Highest point End Pass type
(mag) Time Alt. Az. Time Alt. Az. Time Alt. Az.
16 Apr 8.1 05:20:57 10° NE 05:23:45 20° ESE 05:26:34 10° SSE visible
16 Apr 8.3 18:46:49 10° SW 18:48:56 15° WSW 18:51:03 10° WNW visible
17 Apr 8.6 05:05:37 10° E 05:06:44 11° ESE 05:07:50 10° ESE visible
17 Apr 7.6 18:28:44 10° SSW 18:31:54 27° WSW 18:35:04 10° NW visible
21 Apr 7.5 05:28:56 10° NE 05:32:08 27° ESE 05:35:20 10° SSE visible
21 Apr 8.6 18:56:24 10° WSW 18:57:18 11° WSW 18:58:12 10° W visible
22 Apr 8.3 05:12:53 10° ENE 05:15:04 15° ESE 05:17:16 10° SE visible
22 Apr 8.1 18:37:28 10° SSW 18:40:14 20° WSW 18:42:59 10° NW visible
23 Apr 6.9 18:19:42 10° S 18:23:10 37° WSW 18:26:36 10° NNW visible
